ProjectID,Date,Electric Generation,Electric Utility Import,Facility Electric Load
,YYYY-MM-DD,kW,kW,kW
219,2015-04-07,5.083333333333333,,5.083333333333333
219,2015-04-08,4.708333333333333,,4.708333333333333
219,2015-04-09,7.083333333333333,,7.083333333333333
219,2015-04-10,7.541666666666667,,7.541666666666667
219,2015-04-11,8.041666666666666,,8.041666666666666
219,2015-04-12,8.208333333333334,,8.208333333333334
219,2015-04-13,10.458333333333334,,10.458333333333334
219,2015-04-14,8.0,,8.0
219,2015-04-15,6.083333333333333,,6.083333333333333
219,2015-04-16,6.333333333333333,,6.333333333333333
219,2015-04-17,8.708333333333334,,8.708333333333334
219,2015-04-18,12.625,,12.625
219,2015-04-19,11.416666666666666,,11.416666666666666
219,2015-04-20,4.208333333333333,,4.208333333333333
219,2015-04-21,9.333333333333334,,9.333333333333334
219,2015-04-22,7.791666666666667,,7.791666666666667
219,2015-04-23,5.291666666666667,,5.291666666666667
219,2015-04-24,6.583333333333333,,6.583333333333333
219,2015-04-25,8.0,,8.0
219,2015-04-26,6.375,,6.375
219,2015-04-27,6.125,,6.125
219,2015-04-28,7.666666666666667,,7.666666666666667
219,2015-04-29,7.416666666666667,,7.416666666666667
219,2015-04-30,8.75,,8.75
219,2015-05-01,7.25,,7.25
219,2015-05-02,6.791666666666667,,6.791666666666667
219,2015-05-03,8.625,,8.625
219,2015-05-04,8.5,,8.5
219,2015-05-05,5.333333333333333,,5.333333333333333
219,2015-05-06,3.3333333333333335,,3.3333333333333335
219,2015-05-07,6.375,,6.375
219,2015-05-08,7.541666666666667,,7.541666666666667
219,2015-05-09,4.0,,4.0
219,2015-05-10,5.833333333333333,,5.833333333333333
219,2015-05-11,5.958333333333333,,5.958333333333333
219,2015-05-12,5.583333333333333,,5.583333333333333
219,2015-05-13,4.708333333333333,,4.708333333333333
219,2015-05-14,8.166666666666666,,8.166666666666666
219,2015-05-15,6.416666666666667,,6.416666666666667
219,2015-05-16,4.375,,4.375
219,2015-05-17,6.166666666666667,,6.166666666666667
219,2015-05-18,1.9583333333333333,,1.9583333333333333
219,2015-05-19,4.083333333333333,,4.083333333333333
219,2015-05-20,6.333333333333333,,6.333333333333333
219,2015-05-21,4.666666666666667,,4.666666666666667
219,2015-05-22,7.333333333333333,,7.333333333333333
219,2015-05-23,6.375,,6.375
219,2015-05-24,7.625,,7.625
219,2015-05-25,7.166666666666667,,7.166666666666667
219,2015-05-26,7.625,,7.625
219,2015-05-27,5.625,,5.625
219,2015-05-28,5.458333333333333,,5.458333333333333
219,2015-05-29,8.041666666666666,,8.041666666666666
219,2015-05-30,7.5,,7.5
219,2015-05-31,3.375,,3.375
219,2015-06-01,0.9583333333333334,,0.9583333333333334
219,2015-06-02,1.4166666666666667,,1.4166666666666667
219,2015-06-03,7.583333333333333,,7.583333333333333
219,2015-06-04,6.25,,6.25
219,2015-06-05,4.083333333333333,,4.083333333333333
219,2015-06-06,5.833333333333333,,5.833333333333333
219,2015-06-07,8.583333333333334,,8.583333333333334
219,2015-06-08,5.5,,5.5
219,2015-06-09,4.75,,4.75
219,2015-06-10,7.958333333333333,,7.958333333333333
219,2015-06-11,6.166666666666667,,6.166666666666667
219,2015-06-12,7.25,,7.25
219,2015-06-13,7.625,,7.625
219,2015-06-14,7.041666666666667,,7.041666666666667
219,2015-06-15,2.375,,2.375
219,2015-06-16,3.5416666666666665,,3.5416666666666665
219,2015-06-17,5.5,,5.5
219,2015-06-18,2.9583333333333335,,2.9583333333333335
219,2015-06-19,6.041666666666667,,6.041666666666667
219,2015-06-20,1.6666666666666667,,1.6666666666666667
219,2015-06-21,5.958333333333333,,5.958333333333333
219,2015-06-22,8.541666666666666,,8.541666666666666
219,2015-06-23,5.25,,5.25
219,2015-06-24,8.708333333333334,,8.708333333333334
219,2015-06-25,7.416666666666667,,7.416666666666667
219,2015-06-26,7.75,,7.75
219,2015-06-27,1.9583333333333333,,1.9583333333333333
219,2015-06-28,2.9583333333333335,,2.9583333333333335
219,2015-06-29,6.0,,6.0
219,2015-06-30,7.083333333333333,,7.083333333333333
219,2015-07-01,6.583333333333333,,6.583333333333333
219,2015-07-02,6.041666666666667,,6.041666666666667
219,2015-07-03,8.5,,8.5
219,2015-07-04,3.7083333333333335,,3.7083333333333335
219,2015-07-05,7.791666666666667,,7.791666666666667
219,2015-07-06,5.666666666666667,,5.666666666666667
219,2015-07-07,5.708333333333333,,5.708333333333333
219,2015-07-08,4.25,,4.25
219,2015-07-09,8.958333333333334,,8.958333333333334
219,2015-07-10,23.208333333333332,,23.208333333333332
219,2015-07-11,27.916666666666668,,27.916666666666668
219,2015-07-12,24.833333333333332,,24.833333333333332
219,2015-07-13,27.166666666666668,,27.166666666666668
219,2015-07-14,14.791666666666666,,14.791666666666666
219,2015-07-15,14.25,,14.25
219,2015-07-16,33.625,,33.625
219,2015-07-17,30.0,,30.0
219,2015-07-18,18.666666666666668,,18.666666666666668
219,2015-07-19,31.0,,31.0
219,2015-07-20,37.541666666666664,,37.541666666666664
219,2015-07-21,27.791666666666668,,27.791666666666668
219,2015-07-22,25.5,,25.5
219,2015-07-23,19.875,,19.875
219,2015-07-24,29.375,,29.375
219,2015-07-25,21.541666666666668,,21.541666666666668
219,2015-07-26,22.875,,22.875
219,2015-07-27,36.291666666666664,,36.291666666666664
219,2015-07-28,47.791666666666664,,47.791666666666664
219,2015-07-29,43.166666666666664,,43.166666666666664
219,2015-07-30,23.666666666666668,,23.666666666666668
219,2015-07-31,45.166666666666664,,45.166666666666664
219,2015-08-01,34.166666666666664,,34.166666666666664
219,2015-08-02,23.666666666666668,,23.666666666666668
219,2015-08-03,38.25,,38.25
219,2015-08-04,48.416666666666664,,48.416666666666664
219,2015-08-05,19.791666666666668,,19.791666666666668
219,2015-08-06,23.291666666666668,,23.291666666666668
219,2015-08-07,28.208333333333332,,28.208333333333332
219,2015-08-08,23.833333333333332,,23.833333333333332
219,2015-08-09,22.25,,22.25
219,2015-08-10,22.958333333333332,,22.958333333333332
219,2015-08-11,12.583333333333334,,12.583333333333334
219,2015-08-12,28.625,,28.625
219,2015-08-13,28.208333333333332,,28.208333333333332
219,2015-08-14,34.541666666666664,,34.541666666666664
219,2015-08-15,41.291666666666664,,41.291666666666664
219,2015-08-16,43.333333333333336,,43.333333333333336
219,2015-08-17,41.041666666666664,,41.041666666666664
219,2015-08-18,40.791666666666664,,40.791666666666664
219,2015-08-19,36.25,,36.25
219,2015-08-20,34.333333333333336,,34.333333333333336
219,2015-08-21,32.208333333333336,,32.208333333333336
219,2015-08-22,19.708333333333332,,19.708333333333332
219,2015-08-23,34.875,,34.875
219,2015-08-24,30.958333333333332,,30.958333333333332
219,2015-08-25,32.666666666666664,,32.666666666666664
219,2015-08-26,18.25,,18.25
219,2015-08-27,12.625,,12.625
219,2015-08-28,23.375,,23.375
219,2015-08-29,18.958333333333332,,18.958333333333332
219,2015-08-30,35.583333333333336,,35.583333333333336
219,2015-08-31,32.625,,32.625
219,2015-09-01,30.208333333333332,,30.208333333333332
219,2015-09-02,35.833333333333336,,35.833333333333336
219,2015-09-03,39.666666666666664,,39.666666666666664
219,2015-09-04,32.125,,32.125
219,2015-09-05,28.0,,28.0
219,2015-09-06,29.041666666666668,,29.041666666666668
219,2015-09-07,34.916666666666664,,34.916666666666664
219,2015-09-08,39.916666666666664,,39.916666666666664
219,2015-09-09,31.208333333333332,,31.208333333333332
219,2015-09-10,8.583333333333334,,8.583333333333334
219,2015-09-11,26.125,,26.125
219,2015-09-12,21.916666666666668,,21.916666666666668
219,2015-09-13,22.541666666666668,,22.541666666666668
219,2015-09-14,12.875,,12.875
219,2015-09-15,19.875,,19.875
219,2015-09-16,24.5,,24.5
219,2015-09-17,26.791666666666668,,26.791666666666668
219,2015-09-18,28.791666666666668,,28.791666666666668
219,2015-09-19,29.791666666666668,,29.791666666666668
219,2015-09-20,19.125,,19.125
219,2015-09-21,13.291666666666666,,13.291666666666666
219,2015-09-22,18.25,,18.25
219,2015-09-23,13.5,,13.5
219,2015-09-24,18.708333333333332,,18.708333333333332
219,2015-09-25,19.5,,19.5
219,2015-09-26,14.416666666666666,,14.416666666666666
219,2015-09-27,25.5,,25.5
219,2015-09-28,0.0,,0.0
219,2015-09-29,0.0,,0.0
219,2015-09-30,9.708333333333334,,9.708333333333334
219,2015-10-01,14.333333333333334,,14.333333333333334
219,2015-10-02,7.666666666666667,,7.666666666666667
219,2015-10-03,6.625,,6.625
219,2015-10-04,10.958333333333334,,10.958333333333334
219,2015-10-05,12.208333333333334,,12.208333333333334
219,2015-10-06,15.375,,15.375
219,2015-10-07,19.0,,19.0
219,2015-10-08,17.375,,17.375
219,2015-10-09,9.875,,9.875
219,2015-10-10,23.0,,23.0
219,2015-10-11,22.625,,22.625
219,2015-10-12,22.041666666666668,,22.041666666666668
219,2015-10-13,11.583333333333334,,11.583333333333334
219,2015-10-14,11.541666666666666,,11.541666666666666
219,2015-10-15,10.75,,10.75
219,2015-10-16,11.0,,11.0
219,2015-10-17,12.166666666666666,,12.166666666666666
219,2015-10-18,8.958333333333334,,8.958333333333334
219,2015-10-19,17.458333333333332,,17.458333333333332
219,2015-10-20,16.583333333333332,,16.583333333333332
219,2015-10-21,17.25,,17.25
219,2015-10-22,14.166666666666666,,14.166666666666666
219,2015-10-23,21.666666666666668,,21.666666666666668
219,2015-10-24,11.583333333333334,,11.583333333333334
219,2015-10-25,6.916666666666667,,6.916666666666667
219,2015-10-26,21.166666666666668,,21.166666666666668
219,2015-10-27,12.958333333333334,,12.958333333333334
219,2015-10-28,1.375,,1.375
219,2015-10-29,14.916666666666666,,14.916666666666666
219,2015-10-30,19.833333333333332,,19.833333333333332
219,2015-10-31,16.583333333333332,,16.583333333333332
219,2015-11-01,6.208333333333333,,6.208333333333333
219,2015-11-02,9.375,,9.375
219,2015-11-03,18.041666666666668,,18.041666666666668
219,2015-11-04,17.666666666666668,,17.666666666666668
219,2015-11-05,4.958333333333333,,4.958333333333333
219,2015-11-06,6.125,,6.125
219,2015-11-07,4.708333333333333,,4.708333333333333
219,2015-11-08,17.958333333333332,,17.958333333333332
219,2015-11-09,16.25,,16.25
219,2015-11-10,1.4583333333333333,,1.4583333333333333
219,2015-11-11,7.0,,7.0
219,2015-11-12,1.2083333333333333,,1.2083333333333333
219,2015-11-13,14.041666666666666,,14.041666666666666
219,2015-11-14,9.041666666666666,,9.041666666666666
219,2015-11-15,15.833333333333334,,15.833333333333334
219,2015-11-16,20.041666666666668,,20.041666666666668
219,2015-11-17,12.458333333333334,,12.458333333333334
219,2015-11-18,9.791666666666666,,9.791666666666666
219,2015-11-19,3.5416666666666665,,3.5416666666666665
219,2015-11-20,20.125,,20.125
219,2015-11-21,15.0,,15.0
219,2015-11-22,5.916666666666667,,5.916666666666667
219,2015-11-23,17.0,,17.0
219,2015-11-24,15.208333333333334,,15.208333333333334
219,2015-11-25,17.625,,17.625
219,2015-11-26,15.541666666666666,,15.541666666666666
219,2015-11-27,15.375,,15.375
219,2015-11-28,4.833333333333333,,4.833333333333333
219,2015-11-29,15.958333333333334,,15.958333333333334
219,2015-11-30,11.208333333333334,,11.208333333333334
219,2015-12-01,1.75,,1.75
219,2015-12-02,1.5416666666666667,,1.5416666666666667
219,2015-12-03,6.458333333333333,,6.458333333333333
219,2015-12-04,18.333333333333332,,18.333333333333332
219,2015-12-05,14.958333333333334,,14.958333333333334
219,2015-12-06,17.125,,17.125
219,2015-12-07,14.458333333333334,,14.458333333333334
219,2015-12-08,7.166666666666667,,7.166666666666667
219,2015-12-09,4.083333333333333,,4.083333333333333
219,2015-12-10,15.083333333333334,,15.083333333333334
219,2015-12-11,9.916666666666666,,9.916666666666666
219,2015-12-12,8.083333333333334,,8.083333333333334
219,2015-12-13,11.666666666666666,,11.666666666666666
219,2015-12-14,2.625,,2.625
219,2015-12-15,15.75,,15.75
219,2015-12-16,14.583333333333334,,14.583333333333334
219,2015-12-17,0.4583333333333333,,0.4583333333333333
219,2015-12-18,4.166666666666667,,4.166666666666667
219,2015-12-19,11.541666666666666,,11.541666666666666
219,2015-12-20,16.0,,16.0
219,2015-12-21,5.125,,5.125
219,2015-12-22,0.875,,0.875
219,2015-12-23,0.7916666666666666,,0.7916666666666666
219,2015-12-24,3.2916666666666665,,3.2916666666666665
219,2015-12-25,8.166666666666666,,8.166666666666666
219,2015-12-26,3.9583333333333335,,3.9583333333333335
219,2015-12-27,2.9166666666666665,,2.9166666666666665
219,2015-12-28,11.541666666666666,,11.541666666666666
219,2015-12-29,2.1666666666666665,,2.1666666666666665
219,2015-12-30,1.3333333333333333,,1.3333333333333333
219,2015-12-31,5.416666666666667,,5.416666666666667
219,2016-01-01,4.541666666666667,,4.541666666666667
219,2016-01-02,6.458333333333333,,6.458333333333333
219,2016-01-03,15.625,,15.625
219,2016-01-04,18.041666666666668,,18.041666666666668
219,2016-01-05,19.208333333333332,,19.208333333333332
219,2016-01-06,18.833333333333332,,18.833333333333332
219,2016-01-07,14.833333333333334,,14.833333333333334
219,2016-01-08,8.166666666666666,,8.166666666666666
219,2016-01-09,5.291666666666667,,5.291666666666667
219,2016-01-10,2.9166666666666665,,2.9166666666666665
219,2016-01-11,20.041666666666668,,20.041666666666668
219,2016-01-12,8.291666666666666,,8.291666666666666
219,2016-01-13,17.625,,17.625
219,2016-01-14,9.0,,9.0
219,2016-01-15,11.0,,11.0
219,2016-01-16,9.0,,9.0
219,2016-01-17,3.125,,3.125
219,2016-01-18,17.208333333333332,,17.208333333333332
219,2016-01-19,21.541666666666668,,21.541666666666668
219,2016-01-20,16.875,,16.875
219,2016-01-21,21.375,,21.375
219,2016-01-22,12.291666666666666,,12.291666666666666
219,2016-01-23,0.0,,0.0
219,2016-01-24,0.0,,0.0
219,2016-01-25,0.0,,0.0
219,2016-01-26,0.0,,0.0
219,2016-01-27,11.0,,11.0
219,2016-01-28,20.625,,20.625
219,2016-01-29,11.5,,11.5
219,2016-01-30,15.958333333333334,,15.958333333333334
219,2016-01-31,15.5,,15.5
219,2016-02-01,9.25,,9.25
219,2016-02-02,18.25,,18.25
219,2016-02-03,0.7916666666666666,,0.7916666666666666
219,2016-02-04,8.458333333333334,,8.458333333333334
219,2016-02-05,0.0,,0.0
219,2016-02-06,1.0833333333333333,,1.0833333333333333
219,2016-02-07,12.083333333333334,,12.083333333333334
219,2016-02-08,0.75,,0.75
219,2016-02-09,5.75,,5.75
219,2016-02-10,7.416666666666667,,7.416666666666667
219,2016-02-11,13.916666666666666,,13.916666666666666
219,2016-02-12,20.541666666666668,,20.541666666666668
219,2016-02-13,17.666666666666668,,17.666666666666668
219,2016-02-14,29.708333333333332,,29.708333333333332
219,2016-02-15,2.9166666666666665,,2.9166666666666665
219,2016-02-16,1.875,,1.875
219,2016-02-17,8.0,,8.0
219,2016-02-18,16.083333333333332,,16.083333333333332
219,2016-02-19,17.291666666666668,,17.291666666666668
219,2016-02-20,15.708333333333334,,15.708333333333334
219,2016-02-21,12.625,,12.625
219,2016-02-22,13.541666666666666,,13.541666666666666
219,2016-02-23,4.208333333333333,,4.208333333333333
219,2016-02-24,1.7916666666666667,,1.7916666666666667
219,2016-02-25,7.708333333333333,,7.708333333333333
219,2016-02-26,12.958333333333334,,12.958333333333334
219,2016-02-27,18.916666666666668,,18.916666666666668
219,2016-02-28,13.166666666666666,,13.166666666666666
219,2016-02-29,12.875,,12.875
219,2016-03-01,15.375,,15.375
219,2016-03-02,10.625,,10.625
219,2016-03-03,20.708333333333332,,20.708333333333332
219,2016-03-04,4.25,,4.25
219,2016-03-05,17.625,,17.625
219,2016-03-06,13.75,,13.75
219,2016-03-07,14.625,,14.625
219,2016-03-08,15.166666666666666,,15.166666666666666
219,2016-03-09,15.75,,15.75
219,2016-03-10,12.041666666666666,,12.041666666666666
219,2016-03-11,14.208333333333334,,14.208333333333334
219,2016-03-12,11.791666666666666,,11.791666666666666
219,2016-03-13,13.375,,13.375
219,2016-03-14,5.625,,5.625
219,2016-03-15,12.541666666666666,,12.541666666666666
219,2016-03-16,26.458333333333332,,26.458333333333332
219,2016-03-17,18.75,,18.75
219,2016-03-18,10.708333333333334,,10.708333333333334
219,2016-03-19,13.291666666666666,,13.291666666666666
219,2016-03-20,13.5,,13.5
219,2016-03-21,6.833333333333333,,6.833333333333333
219,2016-03-22,9.958333333333334,,9.958333333333334
219,2016-03-23,19.5,,19.5
219,2016-03-24,15.708333333333334,,15.708333333333334
219,2016-03-25,15.541666666666666,,15.541666666666666
219,2016-03-26,14.791666666666666,,14.791666666666666
219,2016-03-27,16.75,,16.75
219,2016-03-28,11.25,,11.25
219,2016-03-29,9.75,,9.75
219,2016-03-30,10.583333333333334,,10.583333333333334
219,2016-03-31,17.333333333333332,,17.333333333333332
219,2016-04-01,18.25,,18.25
219,2016-04-02,10.416666666666666,,10.416666666666666
219,2016-04-03,11.291666666666666,,11.291666666666666
219,2016-04-04,4.791666666666667,,4.791666666666667
219,2016-04-05,11.708333333333334,,11.708333333333334
219,2016-04-06,9.041666666666666,,9.041666666666666
219,2016-04-07,10.125,,10.125
219,2016-04-08,11.083333333333334,,11.083333333333334
219,2016-04-09,11.791666666666666,,11.791666666666666
219,2016-04-10,12.916666666666666,,12.916666666666666
219,2016-04-11,9.458333333333334,,9.458333333333334
219,2016-04-12,9.916666666666666,,9.916666666666666
219,2016-04-13,14.458333333333334,,14.458333333333334
219,2016-04-14,21.125,,21.125
219,2016-04-15,21.041666666666668,,21.041666666666668
219,2016-04-16,21.041666666666668,,21.041666666666668
219,2016-04-17,20.583333333333332,,20.583333333333332
219,2016-04-18,20.208333333333332,,20.208333333333332
219,2016-04-19,20.875,,20.875
219,2016-04-20,22.083333333333332,,22.083333333333332
219,2016-04-21,20.083333333333332,,20.083333333333332
219,2016-04-22,13.583333333333334,,13.583333333333334
219,2016-04-23,12.958333333333334,,12.958333333333334
219,2016-04-24,21.708333333333332,,21.708333333333332
219,2016-04-25,15.0,,15.0
219,2016-04-26,5.458333333333333,,5.458333333333333
219,2016-04-27,20.166666666666668,,20.166666666666668
219,2016-04-28,13.333333333333334,,13.333333333333334
219,2016-04-29,9.291666666666666,,9.291666666666666
219,2016-04-30,17.708333333333332,,17.708333333333332
219,2016-05-01,2.6666666666666665,,2.6666666666666665
219,2016-05-02,5.125,,5.125
219,2016-05-03,3.125,,3.125
219,2016-05-04,4.833333333333333,,4.833333333333333
219,2016-05-05,8.375,,8.375
219,2016-05-06,2.9166666666666665,,2.9166666666666665
219,2016-05-07,6.458333333333333,,6.458333333333333
219,2016-05-08,15.375,,15.375
219,2016-05-09,19.416666666666668,,19.416666666666668
219,2016-05-10,14.875,,14.875
219,2016-05-11,19.125,,19.125
219,2016-05-12,20.958333333333332,,20.958333333333332
219,2016-05-13,4.458333333333333,,4.458333333333333
219,2016-05-14,17.25,,17.25
219,2016-05-15,9.416666666666666,,9.416666666666666
219,2016-05-16,23.208333333333332,,23.208333333333332
219,2016-05-17,8.791666666666666,,8.791666666666666
219,2016-05-18,15.666666666666666,,15.666666666666666
219,2016-05-19,12.333333333333334,,12.333333333333334
219,2016-05-20,21.541666666666668,,21.541666666666668
219,2016-05-21,7.333333333333333,,7.333333333333333
219,2016-05-22,14.458333333333334,,14.458333333333334
219,2016-05-23,20.166666666666668,,20.166666666666668
219,2016-05-24,9.75,,9.75
219,2016-05-25,20.75,,20.75
219,2016-05-26,19.291666666666668,,19.291666666666668
219,2016-05-27,18.041666666666668,,18.041666666666668
219,2016-05-28,17.583333333333332,,17.583333333333332
219,2016-05-29,20.041666666666668,,20.041666666666668
219,2016-05-30,12.375,,12.375
219,2016-05-31,19.0,,19.0
219,2016-06-01,20.25,,20.25
219,2016-06-02,20.833333333333332,,20.833333333333332
219,2016-06-03,5.375,,5.375
219,2016-06-04,16.041666666666668,,16.041666666666668
219,2016-06-05,3.6666666666666665,,3.6666666666666665
219,2016-06-06,20.75,,20.75
219,2016-06-07,17.458333333333332,,17.458333333333332
219,2016-06-08,10.75,,10.75
219,2016-06-09,23.625,,23.625
219,2016-06-10,23.458333333333332,,23.458333333333332
219,2016-06-11,15.291666666666666,,15.291666666666666
219,2016-06-12,22.583333333333332,,22.583333333333332
219,2016-06-13,21.458333333333332,,21.458333333333332
219,2016-06-14,23.416666666666668,,23.416666666666668
219,2016-06-15,21.958333333333332,,21.958333333333332
219,2016-06-16,6.041666666666667,,6.041666666666667
219,2016-06-17,18.708333333333332,,18.708333333333332
219,2016-06-18,21.333333333333332,,21.333333333333332
219,2016-06-19,21.416666666666668,,21.416666666666668
219,2016-06-20,20.708333333333332,,20.708333333333332
219,2016-06-21,20.291666666666668,,20.291666666666668
219,2016-06-22,21.166666666666668,,21.166666666666668
219,2016-06-23,11.75,,11.75
219,2016-06-24,20.458333333333332,,20.458333333333332
219,2016-06-25,21.5,,21.5
219,2016-06-26,19.875,,19.875
219,2016-06-27,17.041666666666668,,17.041666666666668
219,2016-06-28,5.458333333333333,,5.458333333333333
219,2016-06-29,19.583333333333332,,19.583333333333332
219,2016-06-30,21.166666666666668,,21.166666666666668
219,2016-07-01,11.958333333333334,,11.958333333333334
219,2016-07-02,19.5,,19.5
219,2016-07-03,16.916666666666668,,16.916666666666668
219,2016-07-04,20.416666666666668,,20.416666666666668
219,2016-07-05,17.208333333333332,,17.208333333333332
219,2016-07-06,19.333333333333332,,19.333333333333332
219,2016-07-07,13.041666666666666,,13.041666666666666
219,2016-07-08,16.041666666666668,,16.041666666666668
219,2016-07-09,5.416666666666667,,5.416666666666667
219,2016-07-10,16.291666666666668,,16.291666666666668
219,2016-07-11,20.166666666666668,,20.166666666666668
219,2016-07-12,20.416666666666668,,20.416666666666668
219,2016-07-13,15.958333333333334,,15.958333333333334
219,2016-07-14,12.25,,12.25
219,2016-07-15,15.375,,15.375
219,2016-07-16,15.791666666666666,,15.791666666666666
219,2016-07-17,17.541666666666668,,17.541666666666668
219,2016-07-18,15.708333333333334,,15.708333333333334
219,2016-07-19,17.791666666666668,,17.791666666666668
219,2016-07-20,20.5,,20.5
219,2016-07-21,19.708333333333332,,19.708333333333332
219,2016-07-22,19.208333333333332,,19.208333333333332
219,2016-07-23,19.958333333333332,,19.958333333333332
219,2016-07-24,19.666666666666668,,19.666666666666668
219,2016-07-25,12.583333333333334,,12.583333333333334
219,2016-07-26,19.958333333333332,,19.958333333333332
219,2016-07-27,20.083333333333332,,20.083333333333332
219,2016-07-28,16.291666666666668,,16.291666666666668
219,2016-07-29,14.333333333333334,,14.333333333333334
219,2016-07-30,11.958333333333334,,11.958333333333334
219,2016-07-31,6.125,,6.125
219,2016-08-01,13.166666666666666,,13.166666666666666
219,2016-08-02,13.666666666666666,,13.666666666666666
219,2016-08-03,20.5,,20.5
219,2016-08-04,17.166666666666668,,17.166666666666668
219,2016-08-05,18.208333333333332,,18.208333333333332
219,2016-08-06,12.5,,12.5
219,2016-08-07,19.458333333333332,,19.458333333333332
219,2016-08-08,17.166666666666668,,17.166666666666668
219,2016-08-09,18.291666666666668,,18.291666666666668
219,2016-08-10,8.291666666666666,,8.291666666666666
219,2016-08-11,14.75,,14.75
219,2016-08-12,16.291666666666668,,16.291666666666668
219,2016-08-13,17.541666666666668,,17.541666666666668
219,2016-08-14,17.958333333333332,,17.958333333333332
219,2016-08-15,17.458333333333332,,17.458333333333332
219,2016-08-16,12.166666666666666,,12.166666666666666
219,2016-08-17,17.875,,17.875
219,2016-08-18,12.208333333333334,,12.208333333333334
219,2016-08-19,16.791666666666668,,16.791666666666668
219,2016-08-20,14.0,,14.0
219,2016-08-21,13.208333333333334,,13.208333333333334
219,2016-08-22,20.291666666666668,,20.291666666666668
219,2016-08-23,19.583333333333332,,19.583333333333332
219,2016-08-24,18.5,,18.5
219,2016-08-25,14.916666666666666,,14.916666666666666
219,2016-08-26,16.125,,16.125
219,2016-08-27,17.708333333333332,,17.708333333333332
219,2016-08-28,17.166666666666668,,17.166666666666668
219,2016-08-29,17.5,,17.5
219,2016-08-30,16.125,,16.125
219,2016-08-31,11.541666666666666,,11.541666666666666
219,2016-09-01,6.166666666666667,,6.166666666666667
219,2016-09-02,18.083333333333332,,18.083333333333332
219,2016-09-03,11.583333333333334,,11.583333333333334
219,2016-09-04,18.083333333333332,,18.083333333333332